| time (UTC) | temp C | wind direction | speed KPH | gust KPH | rain 1hr cm | rain 24hr cm | rain mn cm | humidity % | barometer mb |
| 20260503233814 | 15 | 221 | 3.2 | 24.1 | 0.00 | 0.00 | 0.00 | 38 | 1011.3 |
| 20260503233645 | 15 | 260 | 16.1 | 27.4 | 0.00 | 0.00 | 0.00 | 37 | 1011.5 |
| 20260503232355 | 15 | 245 | 14.5 | 27.4 | 0.00 | 0.00 | 0.00 | 38 | 1011.1 |
| 20260503230211 | 16 | 264 | 9.7 | 30.6 | 0.00 | 0.00 | 0.00 | 37 | 1011.4 |
| 20260503225702 | 15 | 261 | 8.0 | 30.6 | 0.00 | 0.00 | 0.00 | 37 | 1011.4 |
| 20260503225133 | 16 | 230 | 6.4 | 19.3 | 0.00 | 0.00 | 0.00 | 38 | 1011.3 |
| 20260503223210 | 15 | 231 | 9.7 | 22.5 | 0.00 | 0.00 | 0.00 | 38 | 1011.6 |
| 20260503222210 | 16 | 260 | 17.7 | 24.1 | 0.00 | 0.00 | 0.00 | 37 | 1011.6 |
| 20260503221210 | 16 | 245 | 9.7 | 25.7 | 0.00 | 0.00 | 0.00 | 38 | 1011.6 |
| 20260503220703 | 16 | 260 | 12.9 | 33.8 | 0.00 | 0.00 | 0.00 | 37 | 1011.7 |
| 20260503215652 | 16 | 263 | 14.5 | 32.2 | 0.00 | 0.00 | 0.00 | 38 | 1011.7 |
| 20260503214211 | 16 | 242 | 16.1 | 30.6 | 0.00 | 0.00 | 0.00 | 37 | 1011.5 |
| 20260503213642 | 16 | 273 | 16.1 | 32.2 | 0.00 | 0.00 | 0.00 | 37 | 1011.6 |
| 20260503212651 | 16 | 261 | 11.3 | 27.4 | 0.00 | 0.00 | 0.00 | 37 | 1011.5 |
| 20260503211211 | 16 | 231 | 9.7 | 27.4 | 0.00 | 0.00 | 0.00 | 36 | 1011.7 |
| 20260503210642 | 16 | 265 | 11.3 | 35.4 | 0.00 | 0.00 | 0.00 | 35 | 1011.5 |
| 20260503205210 | 16 | 277 | 14.5 | 27.4 | 0.00 | 0.00 | 0.00 | 35 | 1011.7 |
| 20260503204645 | 16 | 253 | 16.1 | 27.4 | 0.00 | 0.00 | 0.00 | 35 | 1011.6 |
| 20260503203210 | 16 | 264 | 11.3 | 27.4 | 0.00 | 0.00 | 0.00 | 36 | 1011.7 |
| 20260503202211 | 16 | 241 | 8.0 | 30.6 | 0.00 | 0.00 | 0.00 | 37 | 1011.6 |
| 20260503201210 | 16 | 243 | 8.0 | 20.9 | 0.00 | 0.00 | 0.00 | 37 | 1011.9 |
| 20260503200210 | 16 | 276 | 14.5 | 25.7 | 0.00 | 0.00 | 0.00 | 37 | 1012.0 |
| 20260503195211 | 16 | 251 | 8.0 | 24.1 | 0.00 | 0.00 | 0.00 | 38 | 1012.0 |
| 20260503194657 | 15 | 261 | 14.5 | 29.0 | 0.00 | 0.00 | 0.00 | 40 | 1012.3 |
| 20260503193314 | 15 | 242 | 9.7 | 22.5 | 0.00 | 0.00 | 0.00 | 41 | 1012.9 |
| 20260503193210 | 15 | 256 | 11.3 | 27.4 | 0.00 | 0.00 | 0.00 | 42 | 1012.6 |
| 20260503192718 | 15 | 257 | 12.9 | 24.1 | 0.00 | 0.00 | 0.00 | 41 | 1013.0 |
| 20260503190653 | 15 | 264 | 22.5 | 27.4 | 0.00 | 0.00 | 0.00 | 42 | 1013.1 |
| 20260503185657 | 15 | 274 | 19.3 | 30.6 | 0.00 | 0.00 | 0.00 | 40 | 1013.2 |
| 20260503185117 | 15 | 236 | 16.1 | 22.5 | 0.00 | 0.00 | 0.00 | 41 | 1013.3 |
| 20260503183210 | 15 | 276 | 11.3 | 30.6 | 0.00 | 0.00 | 0.00 | 41 | 1013.3 |
| 20260503182210 | 15 | 279 | 17.7 | 29.0 | 0.00 | 0.00 | 0.00 | 41 | 1013.3 |
| 20260503181210 | 15 | 259 | 14.5 | 30.6 | 0.00 | 0.00 | 0.00 | 39 | 1013.3 |
| 20260503180211 | 15 | 272 | 17.7 | 32.2 | 0.00 | 0.00 | 0.00 | 38 | 1013.6 |
| 20260503175210 | 15 | 254 | 16.1 | 29.0 | 0.00 | 0.00 | 0.00 | 37 | 1013.7 |
| 20260503174210 | 15 | 261 | 14.5 | 27.4 | 0.00 | 0.00 | 0.00 | 38 | 1013.7 |
| 20260503173210 | 15 | 265 | 14.5 | 29.0 | 0.00 | 0.00 | 0.00 | 39 | 1014.1 |
| 20260503172210 | 14 | 247 | 16.1 | 27.4 | 0.00 | 0.00 | 0.00 | 40 | 1014.0 |
| 20260503171649 | 14 | 273 | 14.5 | 30.6 | 0.00 | 0.00 | 0.00 | 39 | 1014.0 |
| 20260503170210 | 14 | 253 | 14.5 | 25.7 | 0.00 | 0.00 | 0.00 | 40 | 1014.2 |
| 20260503160210 | 12 | 250 | 14.5 | 35.4 | 0.00 | 0.00 | 0.00 | 40 | 1015.0 |
| 20260503150605 | 11 | 257 | 12.9 | 20.9 | 0.00 | 0.00 | 0.00 | 41 | 1015.2 |
| 20260503150347 | 11 | 243 | 11.3 | 27.4 | 0.00 | 0.00 | 0.00 | 40 | 1015.3 |
| 20260503140210 | 10 | 248 | 14.5 | 22.5 | 0.00 | 0.00 | 0.00 | 41 | 1015.6 |
| 20260503131210 | 8 | 257 | 8.0 | 17.7 | 0.00 | 0.00 | 0.00 | 42 | 1016.2 |
| 20260503130210 | 8 | 246 | 1.6 | 25.7 | 0.00 | 0.00 | 0.00 | 46 | 1016.2 |
| 20260503110643 | 4 | 167 | 4.8 | 11.3 | 0.00 | 0.03 | 0.00 | 70 | 1015.6 |
| 20260503100210 | 3 | 226 | 3.2 | 11.3 | 0.00 | 0.03 | 0.00 | 75 | 1015.4 |
| 20260503090218 | 3 | 215 | 3.2 | 9.7 | 0.00 | 0.03 | 0.00 | 76 | 1015.8 |
| 20260503080650 | 3 | 138 | 1.6 | 9.7 | 0.00 | 0.05 | 0.00 | 75 | 1015.6 |
| 20260503072210 | 3 | 295 | 3.2 | 8.0 | 0.00 | 0.08 | 0.00 | 76 | 1015.7 |
| 20260503071210 | 3 | 17 | 1.6 | 9.7 | 0.00 | 0.10 | 0.00 | 76 | 1015.8 |
| 20260503070210 | 3 | 209 | 4.8 | 9.7 | 0.00 | 0.10 | 0.00 | 76 | 1015.5 |
| 20260503060210 | 3 | 190 | 4.8 | 8.0 | 0.00 | 0.13 | 0.00 | 75 | 1015.9 |
| 20260503054210 | 3 | 186 | 3.2 | 6.4 | 0.00 | 0.15 | 0.00 | 74 | 1015.9 |
| 20260503053648 | 3 | 209 | 3.2 | 4.8 | 0.00 | 0.15 | 0.00 | 73 | 1016.2 |
| 20260503052210 | 3 | 194 | 0.0 | 4.8 | 0.00 | 0.18 | 0.00 | 74 | 1016.2 |
| 20260503051211 | 3 | 37 | 3.2 | 4.8 | 0.00 | 0.18 | 0.00 | 72 | 1016.3 |
| 20260503050652 | 3 | 217 | 0.0 | 4.8 | 0.00 | 0.18 | 0.00 | 71 | 1016.3 |
| 20260503045209 | 4 | 176 | 0.0 | 4.8 | 0.00 | 0.18 | 0.00 | 72 | 1016.3 |
| 20260503044210 | 4 | 47 | 3.2 | 4.8 | 0.00 | 0.18 | 0.00 | 71 | 1016.3 |
| 20260503043210 | 4 | 249 | 0.0 | 9.7 | 0.00 | 0.18 | 0.00 | 71 | 1016.3 |
| 20260503042211 | 4 | 216 | 6.4 | 9.7 | 0.00 | 0.20 | 0.00 | 70 | 1016.4 |
| 20260503041210 | 5 | 234 | 6.4 | 9.7 | 0.00 | 0.20 | 0.00 | 70 | 1016.5 |
| 20260503040210 | 5 | 222 | 8.0 | 9.7 | 0.00 | 0.20 | 0.00 | 70 | 1016.5 |
| 20260503035211 | 5 | 240 | 4.8 | 11.3 | 0.00 | 0.23 | 0.20 | 70 | 1016.4 |
| 20260503034210 | 5 | 229 | 4.8 | 9.7 | 0.00 | 0.23 | 0.20 | 69 | 1016.5 |
| 20260503033650 | 5 | 233 | 6.4 | 11.3 | 0.00 | 0.23 | 0.20 | 68 | 1016.5 |
| 20260503032210 | 5 | 214 | 6.4 | 9.7 | 0.00 | 0.23 | 0.20 | 67 | 1016.4 |
| 20260503031210 | 5 | 205 | 6.4 | 9.7 | 0.00 | 0.23 | 0.20 | 67 | 1016.6 |
| 20260503030658 | 6 | 203 | 6.4 | 9.7 | 0.00 | 0.23 | 0.20 | 66 | 1016.6 |
| 20260503025210 | 6 | 223 | 6.4 | 9.7 | 0.00 | 0.23 | 0.20 | 66 | 1016.6 |
| 20260503024210 | 6 | 234 | 6.4 | 9.7 | 0.00 | 0.23 | 0.20 | 66 | 1016.8 |
| 20260503023210 | 6 | 220 | 6.4 | 9.7 | 0.00 | 0.23 | 0.20 | 66 | 1016.8 |
| 20260503022210 | 6 | 211 | 8.0 | 9.7 | 0.00 | 0.23 | 0.20 | 65 | 1016.8 |
| 20260503021226 | 6 | 227 | 6.4 | 9.7 | 0.00 | 0.23 | 0.20 | 65 | 1016.9 |
| 20260503020210 | 6 | 200 | 8.0 | 9.7 | 0.00 | 0.23 | 0.20 | 65 | 1017.0 |
| 20260503015210 | 6 | 249 | 3.2 | 8.0 | 0.00 | 0.23 | 0.20 | 63 | 1016.9 |
| 20260503014218 | 6 | 281 | 4.8 | 9.7 | 0.00 | 0.23 | 0.20 | 62 | 1016.9 |
| 20260503013211 | 6 | 271 | 3.2 | 12.9 | 0.00 | 0.23 | 0.20 | 62 | 1017.0 |
| 20260503012211 | 6 | 264 | 6.4 | 14.5 | 0.00 | 0.23 | 0.20 | 62 | 1017.0 |
| 20260503011210 | 6 | 261 | 6.4 | 14.5 | 0.00 | 0.23 | 0.20 | 61 | 1016.9 |
| 20260503010210 | 6 | 250 | 9.7 | 12.9 | 0.00 | 0.23 | 0.20 | 61 | 1016.8 |
| 20260503005210 | 6 | 257 | 9.7 | 12.9 | 0.00 | 0.23 | 0.20 | 60 | 1016.9 |
| 20260503004210 | 6 | 268 | 4.8 | 11.3 | 0.00 | 0.23 | 0.20 | 59 | 1016.8 |
| 20260503003645 | 6 | 262 | 9.7 | 12.9 | 0.00 | 0.23 | 0.20 | 58 | 1016.7 |
| 20260503002210 | 6 | 275 | 6.4 | 12.9 | 0.00 | 0.23 | 0.20 | 58 | 1016.6 |
| 20260503001647 | 6 | 286 | 6.4 | 11.3 | 0.00 | 0.23 | 0.20 | 59 | 1016.7 |
| 20260503000211 | 6 | 245 | 6.4 | 12.9 | 0.00 | 0.23 | 0.20 | 61 | 1016.7 |
| 20260502235651 | 6 | 257 | 11.3 | 12.9 | 0.00 | 0.23 | 0.20 | 61 | 1016.7 |
| 20260502234210 | 6 | 278 | 9.7 | 12.9 | 0.00 | 0.23 | 0.20 | 60 | 1016.5 |